+ View the NASA Portal
+ Center for Near-Earth Object Studies
IMPORTANT:
The SSD Announcement email list is now available. Major changes are coming in the near future, including possible hostname and/or URL changes. To be notified of such changes, subscribe to this email list.
Please visit
this page
for more details.
Don't show this message again
JPL Small-Body Database Browser
Search:
[
help
]
5884 Dolezal (6045 P-L)
Classification:
Main-belt Asteroid
SPK-ID:
2005884
[
Ephemeris
|
Orbit Diagram
|
Orbital Elements
|
Mission Design
|
Physical Parameters
|
Discovery Circumstances
|
Close-Approach Data
]
[ show orbit diagram ]
Orbital Elements at Epoch 2458600.5 (2019-Apr-27.0) TDB
Reference:
JPL 23
(heliocentric ecliptic J2000)
Element
Value
Uncertainty (1-sigma)
Units
e
.1977255304886546
4.0143e-08
a
2.772184346659536
1.4711e-08
au
q
2.224052726103935
1.1224e-07
au
i
7.215436413161069
5.4137e-06
deg
node
204.5505454566229
3.6837e-05
deg
peri
241.2290452952329
3.9189e-05
deg
M
192.6824643713974
1.5036e-05
deg
t
p
2459384.056911689472
(2021-Jun-18.55691169)
7.3373e-05
TDB
period
1685.899132738535
4.62
1.342e-05
3.674e-08
d
yr
n
.2135359067509718
1.6998e-09
deg/d
Q
3.320315967215137
1.762e-08
au
Orbit Determination Parameters
# obs. used (total)
1479
data-arc span
21137 days (57.87 yr)
first obs. used
1960-09-24
last obs. used
2018-08-08
planetary ephem.
DE431
SB-pert. ephem.
SB431-N16
condition code
0
norm. resid. RMS
.49065
source
ORB
producer
Otto Matic
solution date
2018-Oct-03 16:25:40
Additional Information
Earth MOID
= 1.25054 au
Jupiter MOID
= 1.97655 au
T_jup
= 3.297
[ show covariance matrix ]
[
Ephemeris
|
Orbit Diagram
|
Orbital Elements
|
Mission Design
|
Physical Parameters
|
Discovery Circumstances
|
Close-Approach Data
]
Physical Parameter Table
Parameter
Symbol
Value
Units
Sigma
Reference
Notes
absolute magnitude
H
13.3
n/a
MPO347571
diameter
diameter
12.261
km
0.234
urn:nasa:pds:neowise_diameters_albedos::2.0[mainbelt] (http://adsabs.harvard.edu/abs/2011ApJ...741...68M)
geometric albedo
albedo
0.062
0.013
urn:nasa:pds:neowise_diameters_albedos::2.0[mainbelt] (http://adsabs.harvard.edu/abs/2011ApJ...741...68M)
5884 Dolezal (6045 P-L)
Discovered 1960-Sep-24 by van Houten and Gehrels at Palomar
Reference:
DISCOVERY.DB
Last Updated:
2003-08-29
[ show close-approach data ]
Alternate Designations
6045 P-L
= 1971 CG = 1986 LP = 1988 VR1
[
Ephemeris
|
Orbit Diagram
|
Orbital Elements
|
Mission Design
|
Physical Parameters
|
Discovery Circumstances
|
Close-Approach Data
]
2019-Dec-12 22:09 UT
(server date/time)
Site Manager:
Ryan S. Park
Webmaster
:
Alan B. Chamberlin